User: anonymous   Login
Location: *
(2.5500°S, 65.9667°W)
Time: 18:31:02
(UTC+00:00)
Language:

Explorer 11/Cluster Stage 4 - Orbit

View from above orbital plane
View from above orbital plane
View from above satellite
View from above satellite

Ground track
Ground track

The orbit data is extracted from the following two-line orbital elements,

1   107U 61013A   24114.17922029  .00005863  00000-0  74201-3 0  9992
2   107  28.7846 140.9983 0522422  32.1595 330.9768 14.15016171164443
Epoch (UTC): 23 April 2024 04:18:04
Eccentricity: 0.0522422
inclination: 28.7846°
perigee height: 465 km
apogee height: 1219 km
right ascension of ascending node: 140.9983°
argument of perigee: 32.1595°
revolutions per day: 14.15016171
mean anomaly at epoch: 330.9768°
orbit number at epoch: 16444

The dashed part of the orbit path shows where the satellite is in the earth's shadow,  

DLR